Location: Betpouey
(42.8833°N, 0.0333°E)
Time: 08:23:41
(UTC+00:00)

Cosmos 1782 - Pass Details

Date: 01 December 2020
Orbit: 537 x 550 km, 82.5° (Epoch: 17 January)

Event Time Altitude Azimuth Distance (km) Brightness Sun altitude
Rises 17:54:19 0° 194° (SSW) 2,683 6.8 -15.6°
Reaches altitude 10° 17:56:28 10° 197° (SSW) 1,798 5.9 -16.0°
Maximum altitude 18:00:24 64° 280° (W) 604 3.2 -16.7°
Drops below altitude 10° 18:04:22 10° 2° (N) 1,821 5.3 -17.4°
Enters shadow 18:05:40 - 5° (N) 2,352 5.9 -17.7°
